Precipitable_Water
1.12 1.17 1.25 1.30 1.39 1.43 1.41 1.41 1.38 1.36 1.45 1.56 1.70 1.55 1.35 1.26 1.24 1.19 1.17 1.16 1.21 1.25 1.31 1.37 1.40 1.42 1.46 1.49 1.43 1.38 1.40 1.39 1.40 1.43 1.45 1.45 1.42 1.34 1.29 1.26 1.23 1.23 1.46
1.11 1.16 1.25 1.27 1.31 1.36 1.36 1.32 1.32 1.29 1.26 1.25 1.25 1.24 1.24 1.22 1.20 1.18 1.14 1.11 1.12 1.17 1.22 1.23 1.26 1.31 1.36 1.39 1.42 1.41 1.40 1.40 1.40 1.41 1.47 1.54 1.46 1.47 1.43 1.33 1.17 1.17 1.22
0.98 1.17 1.26 1.28 1.27 1.29 1.34 1.34 1.31 1.30 1.31 1.27 1.24 1.24 1.25 1.23 1.22 1.22 1.20 1.18 1.09 1.03 1.06 1.11 1.17 1.21 1.24 1.28 1.34 1.37 1.38 1.37 1.38 1.45 1.48 1.56 1.50 1.47 1.47 1.49 1.35 1.16 1.23
0.92 1.08 1.15 1.19 1.16 1.19 1.27 1.36 1.32 1.29 1.30 1.33 1.33 1.33 1.32 1.31 1.29 1.26 1.23 1.24 1.27 1.22 1.06 1.03 1.04 1.07 1.11 1.15 1.21 1.28 1.33 1.34 1.35 1.40 1.46 1.48 1.63 1.56 1.58 1.54 1.40 1.36 1.40
0.90 0.99 1.07 1.12 1.14 1.16 1.19 1.24 1.33 1.31 1.28 1.30 1.32 1.31 1.32 1.32 1.31 1.29 1.27 1.24 1.23 1.25 1.26 1.18 1.08 1.01 0.99 1.01 1.05 1.12 1.17 1.26 1.34 1.36 1.41 1.42 1.56 1.52 1.60 1.60 1.54 1.35 1.50
0.87 0.92 1.06 1.15 1.20 1.20 1.20 1.18 1.20 1.25 1.27 1.31 1.34 1.30 1.28 1.26 1.26 1.25 1.24 1.25 1.23 1.22 1.21 1.22 1.19 1.15 1.07 1.01 1.03 1.09 1.09 1.14 1.24 1.29 1.32 1.40 1.41 1.44 1.54 1.57 1.58 1.50 1.34
0.81 0.84 0.87 1.12 1.22 1.28 1.23 1.19 1.19 1.20 1.20 1.18 1.18 1.21 1.23 1.21 1.19 1.18 1.17 1.17 1.19 1.19 1.18 1.20 1.19 1.18 1.17 1.11 1.10 1.05 1.03 1.14 1.24 1.24 1.31 1.32 1.35 1.44 1.46 1.50 1.57 1.57 1.45
0.78 0.80 0.82 0.87 0.94 1.03 1.11 1.11 1.11 1.10 1.12 1.08 1.07 1.05 1.05 1.07 1.07 1.08 1.08 1.09 1.10 1.10 1.08 1.09 1.14 1.14 1.12 1.12 1.12 1.11 1.16 1.14 1.13 1.20 1.26 1.29 1.33 1.38 1.37 1.45 1.49 1.54 1.54
0.75 0.76 0.79 0.79 0.81 0.85 0.94 0.93 0.93 0.92 0.90 0.89 0.89 0.86 0.82 0.78 0.80 0.82 0.84 0.87 0.90 0.95 0.99 0.99 0.99 1.04 1.06 1.05 1.06 1.07 1.06 1.11 1.24 1.25 1.16 1.23 1.38 1.43 1.45 1.42 1.49 1.48 1.53
0.71 0.72 0.73 0.72 0.75 0.77 0.80 0.77 0.76 0.75 0.72 0.66 0.60 0.57 0.55 0.55 0.56 0.58 0.60 0.65 0.68 0.72 0.77 0.82 0.87 0.90 0.92 0.96 0.97 0.98 1.01 1.04 1.09 1.22 1.25 1.21 1.31 1.43 1.52 1.46 1.44 1.47 1.56
0.65 0.65 0.65 0.65 0.66 0.66 0.65 0.65 0.63 0.59 0.52 0.49 0.48 0.46 0.44 0.43 0.42 0.41 0.41 0.43 0.45 0.48 0.53 0.59 0.64 0.68 0.73 0.78 0.84 0.89 0.94 0.97 1.03 1.08 1.02 1.19 1.31 1.36 1.44 1.47 1.47 1.48 1.54
0.58 0.58 0.60 0.60 0.59 0.58 0.53 0.50 0.47 0.44 0.42 0.39 0.37 0.35 0.33 0.32 0.32 0.31 0.31 0.31 0.32 0.33 0.34 0.39 0.44 0.50 0.55 0.60 0.64 0.70 0.73 0.83 0.89 0.96 0.98 1.11 1.17 1.30 1.39 1.39 1.43 1.48 1.53
0.53 0.53 0.52 0.50 0.46 0.43 0.40 0.38 0.36 0.33 0.31 0.30 0.29 0.28 0.27 0.27 0.26 0.26 0.26 0.26 0.26 0.25 0.24 0.23 0.23 0.25 0.30 0.38 0.46 0.52 0.57 0.63 0.74 0.82 0.93 1.07 1.15 1.20 1.22 1.33 1.40 1.44 1.44
0.43 0.41 0.38 0.37 0.36 0.35 0.33 0.30 0.28 0.26 0.25 0.24 0.24 0.23 0.23 0.23 0.23 0.22 0.21 0.22 0.21 0.20 0.20 0.20 0.19 0.18 0.18 0.18 0.20 0.26 0.35 0.48 0.60 0.70 0.87 0.91 0.99 1.05 1.09 1.10 1.11 1.20 1.31
0.32 0.32 0.31 0.31 0.29 0.27 0.26 0.25 0.23 0.22 0.22 0.22 0.22 0.21 0.21 0.20 0.19 0.18 0.18 0.18 0.18 0.18 0.18 0.17 0.17 0.17 0.17 0.17 0.17 0.17 0.21 0.31 0.46 0.57 0.69 0.67 0.76 0.81 0.88 0.94 1.01 1.05 1.02
0.32 0.31 0.31 0.29 0.28 0.27 0.25 0.23 0.23 0.22 0.21 0.21 0.20 0.19 0.19 0.18 0.17 0.17 0.16 0.16 0.16 0.17 0.17 0.17 0.17 0.16 0.16 0.16 0.16 0.18 0.25 0.22 0.25 0.34 0.40 0.48 0.55 0.58 0.68 0.76 0.90 0.89 0.91
0.33 0.33 0.32 0.30 0.29 0.27 0.24 0.22 0.21 0.19 0.18 0.16 0.16 0.15 0.14 0.15 0.15 0.15 0.15 0.15 0.16 0.17 0.17 0.17 0.17 0.17 0.17 0.17 0.17 0.22 0.22 0.21 0.22 0.22 0.24 0.26 0.30 0.39 0.49 0.59 0.70 0.73 0.82
0.34 0.33 0.31 0.29 0.28 0.25 0.23 0.21 0.18 0.16 0.14 0.13 0.13 0.13 0.13 0.13 0.15 0.14 0.15 0.15 0.16 0.16 0.17 0.17 0.17 0.17 0.17 0.17 0.18 0.22 0.24 0.21 0.20 0.19 0.22 0.19 0.20 0.23 0.27 0.39 0.48 0.54 0.60
0.31 0.30 0.28 0.27 0.25 0.24 0.21 0.19 0.15 0.13 0.11 0.11 0.11 0.11 0.13 0.13 0.14 0.15 0.16 0.17 0.17 0.17 0.17 0.18 0.18 0.18 0.17 0.17 0.17 0.23 0.27 0.20 0.21 0.19 0.19 0.17 0.19 0.19 0.20 0.22 0.25 0.33 0.45
0.30 0.29 0.28 0.26 0.25 0.24 0.21 0.17 0.14 0.12 0.10 0.10 0.10 0.11 0.12 0.13 0.14 0.15 0.16 0.17 0.18 0.18 0.18 0.19 0.19 0.20 0.19 0.19 0.21 0.23 0.31 0.23 0.21 0.20 0.19 0.18 0.19 0.19 0.19 0.19 0.19 0.21 0.25
0.33 0.31 0.29 0.28 0.26 0.24 0.21 0.17 0.14 0.12 0.11 0.10 0.10 0.11 0.12 0.12 0.13 0.15 0.16 0.16 0.18 0.18 0.19 0.20 0.21 0.20 0.19 0.21 0.22 0.24 0.27 0.33 0.22 0.21 0.20 0.18 0.19 0.19 0.19 0.19 0.19 0.20 0.21
0.35 0.34 0.33 0.31 0.29 0.26 0.23 0.19 0.16 0.13 0.11 0.11 0.11 0.11 0.12 0.12 0.13 0.14 0.15 0.16 0.17 0.18 0.18 0.19 0.20 0.22 0.21 0.22 0.20 0.21 0.19 0.26 0.20 0.22 0.21 0.19 0.19 0.19 0.18 0.19 0.19 0.20 0.20
0.37 0.37 0.35 0.34 0.31 0.28 0.26 0.23 0.18 0.15 0.13 0.12 0.12 0.12 0.12 0.12 0.13 0.13 0.14 0.15 0.17 0.18 0.17 0.18 0.19 0.20 0.20 0.22 0.22 0.20 0.19 0.16 0.19 0.21 0.21 0.21 0.20 0.19 0.19 0.21 0.20 0.20 0.19
0.36 0.37 0.37 0.36 0.33 0.31 0.28 0.27 0.23 0.20 0.17 0.15 0.14 0.13 0.13 0.13 0.13 0.14 0.14 0.15 0.15 0.16 0.17 0.19 0.22 0.22 0.23 0.20 0.23 0.25 0.26 0.23 0.20 0.19 0.22 0.22 0.22 0.21 0.20 0.23 0.21 0.21 0.21
0.31 0.33 0.34 0.33 0.32 0.31 0.30 0.28 0.26 0.24 0.24 0.20 0.18 0.16 0.15 0.15 0.15 0.15 0.15 0.15 0.17 0.21 0.22 0.22 0.23 0.23 0.23 0.23 0.22 0.23 0.24 0.26 0.25 0.23 0.21 0.22 0.23 0.24 0.23 0.25 0.24 0.23 0.24
0.26 0.26 0.27 0.26 0.25 0.24 0.24 0.24 0.24 0.23 0.24 0.25 0.24 0.22 0.19 0.17 0.17 0.16 0.18 0.21 0.22 0.23 0.23 0.23 0.23 0.24 0.24 0.24 0.24 0.24 0.23 0.23 0.23 0.24 0.24 0.25 0.25 0.24 0.26 0.25 0.24 0.24 0.25
Wind_Speed
12 10 7 5 4 3 2 1 0 1 1 4 6 6 5 5 5 5 5 5 5 5 6 6 6 7 7 7 7 7 7 7 7 7 8 8 8 8 8 8 8 8 8
12 11 8 6 5 4 3 2 2 2 2 2 3 4 4 4 4 5 5 5 5 5 5 6 5 6 6 6 6 6 6 6 6 6 7 6 7 7 7 7 7 7 7
11 11 10 7 7 6 5 4 3 4 4 4 4 4 4 4 4 5 5 5 5 5 5 5 6 6 6 6 6 6 6 5 5 6 6 6 5 6 6 6 6 6 5
10 11 10 9 8 8 7 5 5 5 5 5 5 5 5 5 5 5 5 5 5 6 6 6 6 6 6 7 6 6 6 6 6 6 6 6 6 6 6 6 6 5 5
9 11 11 10 9 9 8 8 7 7 7 7 7 7 7 7 7 7 7 7 7 7 7 7 7 7 7 7 7 7 7 7 7 7 6 7 7 7 7 7 6 6 5
10 10 11 10 10 10 9 9 9 9 9 9 9 9 9 9 9 9 9 9 9 9 9 9 9 9 9 9 9 9 8 8 9 8 8 8 8 9 8 7 7 7 6
10 10 11 11 11 11 11 11 11 11 10 10 11 11 11 12 12 12 12 12 12 12 12 12 12 11 11 10 10 10 10 10 10 9 9 9 10 10 9 9 9 8 8
12 11 11 11 12 12 13 13 13 13 13 13 13 13 13 14 14 14 15 15 15 15 15 15 15 14 13 12 12 11 11 11 11 11 10 11 11 11 10 10 10 10 10
12 12 13 13 13 13 13 13 13 14 14 14 15 16 16 16 16 16 17 17 17 17 17 17 17 17 16 15 14 14 13 13 12 12 12 12 13 12 11 12 11 11 11
13 13 14 14 14 13 14 14 14 15 15 15 16 17 17 18 18 18 18 18 18 18 18 18 18 18 18 17 17 16 15 15 14 14 13 14 13 12 12 12 12 12 11
13 13 13 13 14 14 15 16 16 16 16 17 18 18 19 19 20 20 20 20 20 20 20 20 20 20 19 19 19 18 17 17 16 15 15 15 14 14 13 13 13 13 13
14 14 14 15 15 16 16 17 17 18 19 19 20 20 21 21 21 21 21 21 21 21 21 21 21 21 20 20 20 20 19 19 18 17 17 17 16 16 15 15 14 14 14
16 16 16 16 17 17 18 19 20 20 21 21 21 22 22 21 21 21 21 21 21 21 20 21 20 21 21 21 21 21 21 20 20 20 19 18 17 16 16 16 16 15 15
16 17 17 18 18 19 20 20 21 21 21 22 22 21 21 21 21 21 21 20 20 20 20 19 19 19 20 20 20 20 21 21 21 21 21 20 20 19 18 18 17 17 17
17 18 18 19 19 20 20 21 21 21 21 21 21 21 21 21 20 20 20 20 19 19 19 19 19 19 19 19 18 18 19 19 20 20 21 20 21 21 21 21 20 20 20
19 20 20 20 21 21 21 22 22 22 22 22 21 21 21 21 20 20 20 19 19 19 19 19 19 19 18 18 18 17 17 18 18 19 20 21 21 22 21 21 21 22 22
22 22 23 23 23 23 23 24 24 24 23 23 22 22 21 21 21 20 20 20 20 20 19 19 19 19 19 19 18 18 17 17 17 18 19 20 21 21 22 22 23 23 23
24 24 25 25 25 25 25 25 25 25 24 24 23 23 22 22 21 21 21 21 21 21 21 20 20 20 20 20 20 19 19 19 18 19 19 20 21 22 23 23 24 25 25
25 25 25 26 26 26 26 26 26 26 25 25 24 24 24 23 23 22 22 22 22 22 22 22 22 22 22 22 22 21 21 20 21 21 21 22 23 23 24 25 25 26 26
26 26 27 27 27 28 28 28 27 27 26 26 26 26 25 25 25 25 24 24 24 23 23 23 23 23 23 24 24 23 23 23 23 23 23 24 24 25 26 26 27 27 27
27 28 28 29 29 29 29 29 29 29 28 28 28 28 27 27 27 26 26 26 26 25 25 25 25 25 24 25 25 25 25 25 25 25 24 25 25 26 26 26 27 28 28
29 30 30 30 31 31 31 31 31 31 30 30 30 30 29 29 29 29 28 28 28 27 27 27 26 27 26 25 26 28 27 27 27 27 26 26 26 27 27 27 27 28 28
29 30 31 32 32 32 32 33 33 33 33 33 32 32 31 31 31 30 30 30 30 29 29 29 29 28 28 28 26 27 28 29 30 29 28 28 29 29 29 28 28 28 29
28 29 30 31 32 33 34 34 34 35 34 34 34 34 34 33 33 32 32 32 31 31 31 31 31 31 31 30 30 29 29 30 30 32 32 31 31 31 31 31 30 30 30
27 28 30 31 32 33 34 34 35 36 35 36 36 36 36 35 35 34 34 33 33 34 34 34 34 33 33 33 33 33 33 33 33 34 34 35 34 33 34 33 33 33 32
27 29 30 32 33 33 34 35 35 36 36 36 36 36 37 36 36 35 35 35 35 35 36 36 36 35 35 35 35 35 35 35 36 36 37 38 37 37 36 36 36 36 35
Wind_Direction
211 213 218 238 250 287 320 350 13 351 43 41 44 40 37 39 37 34 32 29 27 24 22 23 24 26 28 31 33 35 38 38 38 38 40 40 39 37 35 34 38 37 39
211 214 223 239 245 258 279 287 278 286 292 308 348 10 15 16 18 20 20 19 15 11 10 10 7 10 12 14 15 17 19 22 23 26 23 22 26 23 24 26 25 28 32
217 218 225 241 248 255 265 272 275 275 281 285 294 309 333 336 339 351 358 1 358 353 349 349 353 352 349 349 352 354 355 356 357 359 358 5 8 9 7 8 8 13 18
219 220 229 244 250 253 257 265 271 274 278 280 285 291 297 306 313 319 323 328 337 344 342 336 334 332 332 331 332 331 330 331 332 332 340 344 349 347 348 348 351 348 353
224 226 235 245 251 254 257 262 271 276 280 275 280 284 289 295 300 301 305 308 311 315 321 324 322 321 321 320 318 315 313 312 313 315 317 324 328 333 327 330 330 326 321
233 235 240 246 254 256 257 262 269 274 279 275 277 280 283 286 290 292 292 294 296 299 301 304 307 309 310 310 309 307 305 303 304 303 305 308 311 313 316 315 317 315 306
238 241 244 250 254 257 258 261 266 271 272 276 276 278 280 283 285 287 288 289 289 290 291 293 294 296 300 302 302 300 299 299 297 297 299 301 304 302 303 303 307 304 298
243 246 250 254 258 258 259 263 265 269 272 275 276 278 280 282 283 284 286 285 286 286 287 287 287 287 289 292 294 293 293 293 291 291 291 297 302 297 294 296 297 298 295
246 251 254 259 261 260 261 264 267 271 273 275 276 277 278 280 282 283 284 285 285 285 284 283 283 282 282 284 286 286 287 288 286 286 288 291 297 293 292 289 293 295 294
250 254 258 260 260 261 262 267 270 273 275 276 277 278 279 280 281 283 283 284 284 284 283 282 281 281 278 279 281 281 281 281 281 281 283 288 289 290 290 288 288 290 293
252 256 260 261 261 263 265 268 271 273 276 277 279 280 279 280 281 282 283 283 284 283 282 281 280 279 277 276 277 277 276 277 277 278 279 284 284 284 286 288 285 286 287
254 258 260 262 264 265 267 270 272 275 277 279 280 280 280 280 281 281 282 283 283 283 281 280 280 279 277 276 275 274 274 273 272 273 276 279 281 280 280 282 285 283 286
256 259 261 263 265 267 270 272 274 275 276 278 280 280 280 279 280 281 282 283 283 284 282 282 280 279 278 276 274 273 272 271 271 270 273 276 279 279 279 279 278 281 283
258 262 264 267 268 271 272 274 275 277 277 278 280 281 280 279 281 282 282 283 284 284 284 283 281 281 279 278 276 274 272 270 269 268 269 273 274 275 276 278 278 279 280
261 263 266 269 271 273 274 275 276 277 278 278 279 281 281 280 281 281 282 283 284 285 284 283 282 282 280 279 278 276 273 271 270 268 268 272 272 274 276 276 276 277 278
262 265 267 269 271 273 274 275 276 276 277 277 278 280 280 279 280 280 281 282 283 284 284 283 283 282 281 279 278 277 275 274 273 271 271 271 273 274 275 276 274 276 278
264 266 269 270 272 273 274 275 275 275 275 275 275 277 278 278 279 279 279 281 282 283 283 283 283 282 280 279 277 275 275 275 275 275 275 274 274 274 276 276 275 277 277
266 267 269 270 271 273 274 274 274 274 274 273 273 274 276 276 277 277 278 280 281 282 282 282 283 281 280 278 276 274 273 275 276 277 277 279 278 277 276 277 277 277 277
267 269 270 271 272 273 274 274 274 273 273 272 272 272 274 275 276 276 277 279 280 280 281 281 281 281 281 278 275 272 271 275 276 277 278 281 280 280 279 279 278 278 278
268 269 270 271 272 272 273 273 273 272 271 271 271 272 273 274 275 275 276 277 279 279 280 281 280 281 281 279 275 272 270 273 275 278 279 281 281 281 281 281 280 279 279
269 270 271 271 272 272 272 272 271 270 270 270 270 270 271 272 273 274 274 276 277 278 279 280 278 280 281 282 274 271 271 268 275 276 279 282 282 282 282 281 280 280 279
270 270 271 272 272 272 272 271 271 270 269 269 269 270 271 271 272 273 273 274 276 276 277 278 280 278 279 283 278 274 272 268 276 275 278 281 283 282 283 282 282 280 280
273 273 273 273 273 273 272 271 270 269 269 268 268 269 270 270 271 272 273 274 274 275 275 277 278 279 278 278 281 276 272 271 275 273 277 279 282 282 283 281 282 281 281
278 277 276 275 274 274 273 271 270 269 268 268 268 268 269 269 270 271 272 272 273 274 275 276 278 278 278 278 276 277 274 274 274 273 275 277 281 281 282 280 281 280 281
282 280 279 277 276 275 274 272 271 270 269 268 268 268 268 269 269 270 270 271 272 274 275 276 277 277 277 276 276 276 274 273 275 273 273 278 280 280 281 279 279 279 279
287 284 281 279 278 276 275 273 271 269 269 269 269 268 268 268 268 269 270 271 273 275 276 276 276 276 276 275 275 275 275 274 275 274 274 277 277 279 279 280 280 279 279